When you browse on this site, cookies collect data to enhance your experience and personalize the content and advertising you see.
Visit our Privacy Policy to learn more. By continuing to use the site, you agree to this use of cookies and data.
  • In Netherlands
  • List of Countries
  • For 7 days
  • Water Temperature
  • Satellite Maps
  • Weather Map
  • Weather Widgets
  • user-avatar
    Login

    Hourly Weather Konstantynów Łódzki

    Today, 26 June, Wednesday

    Time Temperature Precipitation Wind Pressure Humidity
    00:00 +25°C° 0 mm 3 mps 753 mmHg 81%
    01:00 +23°C° 0 mm 4 mps 752 mmHg 79%
    02:00 +24°C° 0 mm 3 mps 752 mmHg 82%
    03:00 +24°C° 0 mm 3 mps 752 mmHg 85%
    04:00 +22°C° 0 mm 3 mps 751 mmHg 88%
    05:00 +25°C° 0 mm 3 mps 752 mmHg 82%
    06:00 +27°C° 0 mm 3 mps 752 mmHg 76%
    07:00 +28°C° 0 mm 3 mps 752 mmHg 70%
    08:00 +30°C° 0 mm 3 mps 751 mmHg 63%
    09:00 +32°C° 0 mm 4 mps 751 mmHg 56%
    10:00 +33°C° 0 mm 4 mps 751 mmHg 49%
    11:00 +34°C° 0 mm 5 mps 751 mmHg 47%
    12:00 +35°C° 0 mm 5 mps 750 mmHg 45%
    13:00 +35°C° 0 mm 5 mps 750 mmHg 43%
    14:00 +35°C° 0 mm 5 mps 750 mmHg 45%
    15:00 +35°C° 0 mm 5 mps 749 mmHg 47%
    16:00 +35°C° 0 mm 5 mps 748 mmHg 48%
    17:00 +34°C° 0 mm 4 mps 748 mmHg 54%
    18:00 +33°C° 0 mm 4 mps 748 mmHg 59%
    19:00 +31°C° 0 mm 3 mps 748 mmHg 65%
    20:00 +30°C° 0.2 mm 3 mps 747 mmHg 66%
    21:00 +29°C° 0.2 mm 3 mps 747 mmHg 68%
    22:00 +28°C° 0.2 mm 3 mps 747 mmHg 69%
    23:00 +26°C° 0.6 mm 4 mps 747 mmHg 76%

    Tomorrow, 27 June, Thursday

    Time Temperature Precipitation Wind Pressure Humidity
    00:00 +25°C° 0.6 mm 4 mps 747 mmHg 83%
    01:00 +23°C° 0.6 mm 5 mps 747 mmHg 90%
    02:00 +22°C° 0 mm 5 mps 747 mmHg 91%
    03:00 +21°C° 0 mm 5 mps 747 mmHg 91%
    04:00 +20°C° 0 mm 5 mps 747 mmHg 92%
    05:00 +20°C° 0.1 mm 6 mps 747 mmHg 88%
    06:00 +20°C° 0.1 mm 7 mps 748 mmHg 84%
    07:00 +20°C° 0.1 mm 7 mps 748 mmHg 80%
    08:00 +20°C° 0 mm 7 mps 748 mmHg 75%
    09:00 +20°C° 0 mm 7 mps 748 mmHg 70%
    10:00 +20°C° 0 mm 7 mps 748 mmHg 64%
    11:00 +21°C° 0 mm 7 mps 748 mmHg 60%
    12:00 +22°C° 0 mm 8 mps 748 mmHg 56%
    13:00 +22°C° 0 mm 8 mps 748 mmHg 52%
    14:00 +22°C° 0 mm 8 mps 748 mmHg 54%
    15:00 +22°C° 0 mm 7 mps 748 mmHg 56%
    16:00 +22°C° 0 mm 7 mps 748 mmHg 58%
    17:00 +21°C° 0 mm 7 mps 748 mmHg 63%
    18:00 +20°C° 0 mm 6 mps 748 mmHg 68%
    19:00 +20°C° 0 mm 6 mps 748 mmHg 73%
    20:00 +19°C° 0.1 mm 5 mps 748 mmHg 76%
    21:00 +17°C° 0.1 mm 5 mps 749 mmHg 80%
    22:00 +17°C° 0.1 mm 4 mps 749 mmHg 84%
    23:00 +15°C° 0 mm 4 mps 749 mmHg 87%

    Day after tomorrow, 28 June, Friday

    Time Temperature Precipitation Wind Pressure Humidity
    00:00 +14°C° 0 mm 3 mps 749 mmHg 91%
    01:00 +13°C° 0 mm 3 mps 750 mmHg 95%
    02:00 +13°C° 0 mm 3 mps 750 mmHg 94%
    03:00 +13°C° 0 mm 2 mps 750 mmHg 93%
    04:00 +13°C° 0 mm 2 mps 750 mmHg 93%
    05:00 +14°C° 0 mm 2 mps 750 mmHg 87%
    06:00 +16°C° 0 mm 2 mps 750 mmHg 81%
    07:00 +17°C° 0 mm 3 mps 750 mmHg 75%
    08:00 +19°C° 0 mm 3 mps 750 mmHg 67%
    09:00 +20°C° 0 mm 3 mps 750 mmHg 58%
    10:00 +22°C° 0 mm 4 mps 750 mmHg 49%
    11:00 +22°C° 0 mm 4 mps 749 mmHg 50%
    12:00 +22°C° 0 mm 4 mps 749 mmHg 50%
    13:00 +23°C° 0 mm 5 mps 749 mmHg 51%
    14:00 +23°C° 0 mm 5 mps 749 mmHg 50%
    15:00 +23°C° 0 mm 5 mps 749 mmHg 49%
    16:00 +23°C° 0 mm 6 mps 749 mmHg 47%
    17:00 +22°C° 0 mm 5 mps 749 mmHg 52%
    18:00 +21°C° 0 mm 5 mps 749 mmHg 57%
    19:00 +19°C° 0 mm 5 mps 750 mmHg 62%
    20:00 +18°C° 0 mm 4 mps 750 mmHg 60%
    21:00 +15°C° 0 mm 4 mps 750 mmHg 59%
    22:00 +14°C° 0 mm 4 mps 751 mmHg 58%
    23:00 +13°C° 0 mm 3 mps 751 mmHg 61%

    29 June, Saturday

    Time Temperature Precipitation Wind Pressure Humidity
    00:00 +12°C° 0 mm 3 mps 751 mmHg 63%
    01:00 +13°C° 0 mm 2 mps 751 mmHg 66%
    02:00 +12°C° 0 mm 2 mps 751 mmHg 68%
    03:00 +12°C° 0 mm 2 mps 751 mmHg 70%
    04:00 +12°C° 0 mm 2 mps 751 mmHg 72%
    05:00 +14°C° 0 mm 2 mps 751 mmHg 68%
    06:00 +15°C° 0 mm 2 mps 751 mmHg 64%
    07:00 +17°C° 0 mm 2 mps 751 mmHg 59%
    08:00 +19°C° 0 mm 3 mps 751 mmHg 56%
    09:00 +20°C° 0 mm 3 mps 751 mmHg 53%
    10:00 +22°C° 0 mm 4 mps 751 mmHg 50%
    11:00 +23°C° 0 mm 4 mps 751 mmHg 48%
    12:00 +25°C° 0 mm 4 mps 751 mmHg 46%
    13:00 +25°C° 0 mm 5 mps 750 mmHg 45%
    14:00 +26°C° 0 mm 5 mps 750 mmHg 45%
    15:00 +26°C° 0 mm 5 mps 750 mmHg 46%
    16:00 +26°C° 0 mm 4 mps 749 mmHg 46%
    17:00 +25°C° 0 mm 4 mps 749 mmHg 50%
    18:00 +24°C° 0 mm 3 mps 749 mmHg 55%
    19:00 +23°C° 0 mm 2 mps 749 mmHg 59%
    20:00 +20°C° 0 mm 2 mps 749 mmHg 59%
    21:00 +19°C° 0 mm 2 mps 749 mmHg 60%
    22:00 +18°C° 0 mm 2 mps 749 mmHg 60%
    23:00 +18°C° 0 mm 2 mps 749 mmHg 60%

    30 June, Sunday

    Time Temperature Precipitation Wind Pressure Humidity
    00:00 +17°C° 0 mm 2 mps 749 mmHg 61%
    01:00 +17°C° 0 mm 3 mps 749 mmHg 61%
    02:00 +17°C° 0 mm 3 mps 749 mmHg 63%
    03:00 +16°C° 0 mm 3 mps 749 mmHg 65%
    04:00 +16°C° 0 mm 3 mps 749 mmHg 68%
    05:00 +18°C° 0 mm 3 mps 749 mmHg 64%
    06:00 +20°C° 0 mm 3 mps 749 mmHg 61%
    07:00 +21°C° 0 mm 3 mps 749 mmHg 58%
    08:00 +24°C° 0 mm 3 mps 749 mmHg 53%
    09:00 +26°C° 0 mm 4 mps 749 mmHg 47%
    10:00 +28°C° 0 mm 4 mps 749 mmHg 42%
    11:00 +29°C° 0 mm 4 mps 748 mmHg 40%
    12:00 +30°C° 0 mm 4 mps 748 mmHg 38%
    13:00 +32°C° 0 mm 4 mps 748 mmHg 36%
    14:00 +32°C° 0 mm 4 mps 747 mmHg 37%
    15:00 +32°C° 0 mm 5 mps 747 mmHg 38%
    16:00 +32°C° 0 mm 5 mps 746 mmHg 39%
    17:00 +30°C° 0 mm 5 mps 746 mmHg 46%
    18:00 +28°C° 0 mm 5 mps 746 mmHg 52%
    19:00 +27°C° 0 mm 5 mps 746 mmHg 58%
    20:00 +26°C° 0 mm 5 mps 746 mmHg 62%
    21:00 +25°C° 0 mm 5 mps 746 mmHg 66%
    22:00 +23°C° 0 mm 6 mps 746 mmHg 70%
    23:00 +22°C° 0 mm 6 mps 745 mmHg 72%

    1 July, Monday

    Time Temperature Precipitation Wind Pressure Humidity
    00:00 +22°C° 0 mm 6 mps 745 mmHg 74%
    01:00 +21°C° 0 mm 5 mps 745 mmHg 76%
    02:00 +21°C° 0 mm 5 mps 745 mmHg 78%
    03:00 +20°C° 0 mm 4 mps 745 mmHg 81%
    04:00 +19°C° 0 mm 4 mps 745 mmHg 84%
    05:00 +21°C° 0 mm 3 mps 745 mmHg 79%
    06:00 +22°C° 0 mm 3 mps 745 mmHg 74%
    07:00 +24°C° 0 mm 3 mps 746 mmHg 70%
    08:00 +25°C° 0 mm 3 mps 746 mmHg 66%
    09:00 +26°C° 0 mm 3 mps 746 mmHg 61%
    10:00 +27°C° 0 mm 4 mps 746 mmHg 57%
    11:00 +28°C° 0 mm 4 mps 745 mmHg 55%
    12:00 +29°C° 0 mm 4 mps 745 mmHg 54%
    13:00 +29°C° 0 mm 4 mps 745 mmHg 52%
    14:00 +29°C° 0 mm 4 mps 744 mmHg 53%
    15:00 +29°C° 0 mm 3 mps 744 mmHg 54%
    16:00 +29°C° 0 mm 3 mps 743 mmHg 55%
    17:00 +27°C° 0.5 mm 2 mps 743 mmHg 63%
    18:00 +26°C° 0.5 mm 2 mps 743 mmHg 70%
    19:00 +25°C° 0.5 mm 1 mps 743 mmHg 77%
    20:00 +24°C° 1.4 mm 1 mps 743 mmHg 82%
    21:00 +21°C° 1.4 mm 2 mps 743 mmHg 87%
    22:00 +20°C° 1.4 mm 2 mps 743 mmHg 92%
    23:00 +20°C° 0.3 mm 3 mps 743 mmHg 89%
    Show more